N1JOV-7 Weather Reports


time (UTC)temp
C
wind
direction
speed
KPH
gust
KPH
rain 1hr
cm
rain 24hr
cm
rain mn
cm
humidity
%
barometer
mb
20260507115101 11 262 0.0 3.2 0.00 0.00 0.00 99 1005.8
20260507114101 11 262 0.0 3.2 0.00 0.00 0.00 99 1005.8
20260507113101 11 262 0.0 3.2 0.00 0.00 0.00 99 1005.8
20260507112101 11 262 0.0 3.2 0.00 0.00 0.00 99 1005.8
20260507111102 11 262 0.0 3.2 0.00 0.00 0.00 99 1005.8
20260507105101 11 262 0.0 3.2 0.00 0.00 0.00 99 1005.8
20260507104101 11 262 0.0 3.2 0.00 0.00 0.00 99 1005.8
20260507103101 11 262 0.0 3.2 0.00 0.00 0.00 99 1005.8
20260507102101 11 262 0.0 3.2 0.00 0.00 0.00 99 1005.8
20260507101101 11 262 0.0 3.2 0.00 0.00 0.00 99 1005.8
20260507095102 11 262 0.0 3.2 0.00 0.00 0.00 99 1005.8
20260507094102 11 262 0.0 3.2 0.00 0.00 0.00 99 1005.8
20260507093101 11 262 0.0 3.2 0.00 0.00 0.00 99 1005.8
20260507092101 11 262 0.0 3.2 0.00 0.00 0.00 99 1005.8
20260507091101 11 262 0.0 3.2 0.00 0.00 0.00 99 1005.8
20260507085101 11 262 0.0 3.2 0.00 0.00 0.00 99 1005.8
20260507084102 11 262 0.0 3.2 0.00 0.00 0.00 99 1005.8
20260507083102 11 262 0.0 3.2 0.00 0.00 0.00 99 1005.8
20260507082102 11 262 0.0 3.2 0.00 0.00 0.00 99 1005.8
20260507081101 11 262 0.0 3.2 0.00 0.00 0.00 99 1005.8
20260507075101 11 262 0.0 3.2 0.00 0.00 0.00 99 1005.8
20260507074101 11 262 0.0 3.2 0.00 0.00 0.00 99 1005.8
20260507073101 11 262 0.0 3.2 0.00 0.00 0.00 99 1005.8
20260507072101 11 262 0.0 3.2 0.00 0.00 0.00 99 1005.8
20260507071102 11 262 0.0 3.2 0.00 0.00 0.00 99 1005.8
20260507065101 11 262 0.0 3.2 0.00 0.00 0.00 99 1005.8
20260507064101 11 262 0.0 3.2 0.00 0.00 0.00 99 1005.8
20260507063101 11 262 0.0 3.2 0.00 0.00 0.00 99 1005.8
20260507062101 11 262 0.0 3.2 0.00 0.00 0.00 99 1005.8
20260507061101 11 262 0.0 3.2 0.00 0.00 0.00 99 1005.8
20260507055101 11 262 0.0 3.2 0.00 0.00 0.00 99 1005.8
20260507054102 11 262 0.0 3.2 0.00 0.00 0.00 99 1005.8
20260507053102 11 262 0.0 3.2 0.00 0.00 0.00 99 1005.8
20260507052101 11 262 0.0 3.2 0.00 0.00 0.00 99 1005.8
20260507051101 11 262 0.0 3.2 0.00 0.00 0.00 99 1005.8
20260507045101 11 262 0.0 3.2 0.00 0.00 0.00 99 1005.8
20260507044101 11 262 0.0 3.2 0.00 0.00 0.00 99 1005.8
20260507043102 11 262 0.0 3.2 0.00 0.00 0.00 99 1005.8
20260507042102 11 262 0.0 3.2 0.00 0.00 0.00 99 1005.8
20260507041101 11 262 0.0 3.2 0.00 0.00 0.00 99 1005.8
20260507035101 11 262 0.0 3.2 0.00 0.00 0.00 99 1005.8
20260507034102 11 262 0.0 3.2 0.00 0.00 0.00 99 1005.8
20260507033101 11 262 0.0 3.2 0.00 0.00 0.00 99 1005.8
20260507032101 11 262 0.0 3.2 0.00 0.00 0.00 99 1005.8
20260507031102 11 262 0.0 3.2 0.00 0.00 0.00 99 1005.8
20260507025101 11 262 0.0 3.2 0.00 0.00 0.00 99 1005.8
20260507024101 11 262 0.0 3.2 0.00 0.00 0.00 99 1005.8
20260507023101 11 262 0.0 3.2 0.00 0.00 0.00 99 1005.8
20260507022101 11 262 0.0 3.2 0.00 0.00 0.00 99 1005.8
20260507021101 11 262 0.0 3.2 0.00 0.00 0.00 99 1005.8
20260507015102 11 262 0.0 3.2 0.00 0.00 0.00 99 1005.8
20260507014102 11 262 0.0 3.2 0.00 0.00 0.00 99 1005.8
20260507013102 11 262 0.0 3.2 0.00 0.00 0.00 99 1005.8
20260507012101 11 262 0.0 3.2 0.00 0.00 0.00 99 1005.8
20260507011101 11 262 0.0 3.2 0.00 0.00 0.00 99 1005.8
20260507010101 11 262 0.0 3.2 0.00 0.00 0.00 99 1005.8
20260507005101 11 262 0.0 3.2 0.00 0.00 0.00 99 1005.8
20260507004101 11 262 0.0 3.2 0.00 0.00 0.00 99 1005.8
20260507003101 11 262 0.0 3.2 0.00 0.00 0.00 99 1005.8
20260507002102 11 262 0.0 3.2 0.00 0.00 0.00 99 1005.8
20260507001102 11 262 0.0 3.2 0.00 0.00 0.00 99 1005.8
20260506235101 11 227 0.0 4.8 0.00 0.00 0.00 99 1005.8
20260506234101 11 246 0.0 11.3 0.00 0.00 0.00 99 1006.1
20260506233101 11 227 0.0 17.7 0.00 0.00 0.00 99 1006.1
20260506232101 11 243 0.0 9.7 0.00 0.00 0.00 99 1006.2
20260506231102 11 195 0.0 19.3 0.00 0.00 0.00 99 1006.2
20260506225102 11 251 0.0 6.4 0.13 0.00 0.00 99 1006.3
20260506224101 11 265 0.0 19.3 0.08 0.00 0.00 99 1006.3
20260506223101 11 226 0.0 14.5 0.13 0.00 0.00 99 1006.5
20260506222101 11 310 0.0 4.8 0.13 0.00 0.00 99 1006.7
20260506221101 11 216 0.0 12.9 0.08 0.00 0.00 99 1006.7
20260506220101 11 238 0.0 3.2 0.23 0.00 0.00 99 1006.7
20260506215102 11 261 0.0 4.8 0.20 0.00 0.00 99 1006.8
20260506214238 11 248 0.0 6.4 0.00 0.00 0.00 99 1006.8